www.pogodaiklimat.ru

Погода и климат >> Архив погоды >> Иран >> Gach Saran


ПОГОДА в Gach Saran

  • Прогноз погоды в Gach Saran
  • Монитор погоды в Gach Saran
  • Климат города

АРХИВ ПОГОДЫ в Gach Saran

Время (UTC), дата Ветер
(напр.,м/с)
 
Видим.   Явления Облачность Т
(С)
Тd
(С)
f
(%)
Тe
(С)
Тes
(С)
Комфортность P
(гПа)
Po
(гПа)
Тmin
(С)
Tmax
(С)
R
(мм)
R24
(мм)
S
(см)
00 14.11 штиль 0 10 км ясно +12.0 +9.7 86 +11 +11 1013.8 931.8
03 14.11 ЮВ 1 10 км 5/5 1200 м
[Sc diur, vesp]
+12.8 +8.9 77 +13 +13 1015.4 932.8 +11.5
06 14.11 ЮВ 3 10 км 9/3 1200 м
[Sc diur, vesp Ac As]
+16.2 +7.2 55 +16 +17 1016.4 933.7
09 14.11 штиль 0 10 км 9/3 1200 м
[Sc diur, vesp Ac As]
+19.6 +3.7 35 +20 +23 1015.1 932.6
12 14.11 штиль 0 10 км 10/5 1050 м
[Cb calv As op]
+20.0 +3.7 34 +20 +21 1014.2 931.8
15 14.11 штиль 0 8000 м слабый дождь 10/5 1050 м
[Cb calv As op]
+14.2 +10.6 79 +14 +14 1017.6 934.4 +21.3
18 14.11 штиль 0 4000 м слабый дождь 10/5 1050 м
[Cb calv As op]
+13.7 +10.3 80 +13 +13 1017.7 934.9 6
21 14.11 штиль 0 4000 м дождь 10/5 1050 м
[Cb calv As op]
+13.4 +11.8 90 +13 +13 1017.4 935.1
00 15.11 штиль 0 4000 м дождь 10/5 1050 м
[Cb calv As op]
+13.6 +13.1 97 +13 +13 1015.7 933.6 10
03 15.11 штиль 0 3000 м дождь 10/5 1050 м
[Cb calv As op]
+13.4 +12.8 96 +13 +13 1018.4 935.3 +12.9
06 15.11 штиль 0 4000 м дождь 10/4 1050 м
[Cb calv As op]
+14.1 +13.2 94 +14 +14 1019.6 936.5 14
09 15.11 ЮВ 3 4000 м дождь 10/5 1050 м
[Cb calv As op]
+14.0 +13.9 99 +13 +14 1020.0 936.8
12 15.11 штиль 0 4000 м слабый дождь 10/5 1050 м
[Cb calv As op]
+14.4 +14.2 99 +14 +14 1018.0 935.0 18
15 15.11 ЮВ 3 4000 м в посл. час дождь 10/5 1050 м
[Cb calv As op]
+15.3 +12.4 83 +15 +15 1017.9 935.0 +15.3
18 15.11 ЮВ 4 8000 м мгла {дождь} 8/4 1200 м
[Sc diur, vesp Ac As]
+16.1 +12.3 78 +15 +15 1017.2 934.5 0.2
21 15.11 штиль 0 8000 м мгла 8/4 1200 м
[Sc diur, vesp Ac As]
+15.9 +12.5 80 +16 +16 1017.3 934.6
00 16.11 ЮВ 3 10 км 10/5 1050 м
[Cb calv As op]
+16.7 +12.3 75 +16 +16 1014.6 932.3
03 16.11 СЗ 3 6000 м гроза, ливневой дождь 10/6 1050 м
[Cb cap As op]
+16.8 +13.3 80 +17 +17 1018.7 936.2 +15.0
06 16.11 штиль 0 4000 м гроза, ливневой дождь 10/4 1050 м
[Cb cap As op]
+15.4 +14.6 95 +15 +16 1021.1 938.4 14
09 16.11 ЮВ 3 5000 м слабый дождь 10/4 1050 м
[Cb cap As op]
+16.5 +14.9 90 +16 +17 1020.3 937.8
12 16.11 ЮВ 5 7000 м {дождь} 10/4 1050 м
[Cb calv Ac As]
+18.4 +14.5 78 +19 +19 1018.8 936.8 3
15 16.11 ЮВ 3 10 км 8/4 1050 м
[Cb calv Ac As]
+17.3 +12.8 75 +17 +17 1019.3 937.0 +19.3
18 16.11 ЮВ 3 10 км 4/0
[Ac trans]
+16.7 +12.9 78 +16 +16 1020.6 938.0
21 16.11 штиль 0 10 км 4/0
[Ac trans]
+15.1 +13.1 88 +15 +15 1020.3 937.6
00 17.11 Ю 1 10 км 4/0
[Ac trans]
+13.8 +12.2 90 +14 +14 1019.3 936.8
03 17.11 штиль 0 10 км 4/0
[Ac trans]
+13.6 +12.7 94 +13 +13 1020.5 937.7 +12.8
06 17.11 штиль 0 10 км 1/1 1200 м
[Cu hum]
+19.5 +14.1 71 +21 +26 комфорт 1020.9 938.8
09 17.11 штиль 0 10 км 1/1 1200 м
[Cu hum]
+23.9 +15.1 58 +27 +37 жарко 1018.4 936.9
12 17.11 З 3 10 км 3/3 900 м
[Cb calv]
+22.7 +16.5 68 +27 +29 душно 1017.6 935.9
15 17.11 штиль 0 10 км 1/1 1200 м
[Sc diur, vesp]
+18.5 +16.1 86 +19 +19 1019.1 936.7 +25.2
18 17.11 штиль 0 10 км ясно +16.9 +16.4 97 +17 +17 1019.0 937.1
21 17.11 штиль 0 10 км ясно +16.6 +16.3 98 +16 +16 1018.0 936.6
00 18.11 штиль 0 10 км ясно +16.4 +14.9 91 +16 +16 1017.4 936.0
03 18.11 штиль 0 10 км ясно +15.7 +14.1 90 +15 +15 1018.3 936.1 +15.6
06 18.11 штиль 0 6000 м туман на расстоянии ясно +18.7 +14.9 79 +20 +26 1018.9 936.9
09 18.11 З 2 10 км 1/1 1080 м
[Cu hum]
+21.9 +14.5 63 +25 +33 комфорт 1016.6 935.2
12 18.11 З 4 10 км 1/1 1080 м
[Cu hum]
+20.6 +14.5 68 +23 +25 комфорт 1015.6 934.1
15 18.11 З 2 10 км ясно +17.4 +15.2 87 +18 +18 1016.5 934.4 +22.4
18 18.11 штиль 0 4000 м дымка ясно +16.0 +15.7 98 +16 +16 1017.0 935.1
21 18.11 штиль 0 6000 м дымка ясно +15.4 +14.1 92 +15 +15 1016.8 935.2
00 19.11 штиль 0 6000 м дымка 3/3 1200 м
[Cu hum]
+15.1 +13.3 89 +15 +15 1016.6 934.8
03 19.11 штиль 0 900 м туман ?/? +13.7 +12.9 95 +13 +13 1017.5 934.9 +12.5
06 19.11 ЮВ 2 8000 м мгла {туман} 3/0
[Ci fib]
+17.0 +12.3 74 +17 +21 1018.8 936.4
09 19.11 ЮВ 2 10 км 6/0
[Cs]
+21.1 +10.0 49 +23 +30 комфорт 1017.1 935.2
12 19.11 З 2 8000 м мгла 10/0
[As trans]
+19.0 +15.1 78 +21 +22 комфорт 1016.4 934.4
15 19.11 штиль 0 6000 м дымка ясно +16.4 +15.1 92 +16 +16 1017.4 934.7 +23.9
18 19.11 штиль 0 8000 м дымка ясно +15.4 +14.1 92 +15 +15 1017.8 935.5
21 19.11 штиль 0 8000 м дымка ясно +15.3 +14.5 95 +15 +15 1017.1 935.4
00 20.11 штиль 0 10 км 6/3 1200 м
[Sc diur, vesp Ac As]
+15.6 +13.5 87 +15 +15 1017.2 935.2
03 20.11 штиль 0 6000 м слабый дождь 10/5 1050 м
[Cb calv As op]
+13.9 +13.3 96 +13 +13 1018.2 935.1 +13.0
06 20.11 штиль 0 6000 м в посл. час дождь 10/5 1050 м
[Cb calv As op]
+13.2 +10.7 85 +13 +13 1020.3 937.1 2
09 20.11 ЮВ 3 10 км 8/3 1200 м
[Sc diur, vesp Ac As]
+18.8 +9.0 53 +20 +22 1017.7 935.4
12 20.11 штиль 0 10 км 8/3 1200 м
[Sc diur, vesp Ac As]
+19.0 +9.5 54 +20 +21 1016.8 934.7
15 20.11 штиль 0 10 км 8/3 1200 м
[Sc diur, vesp Ac As]
+15.2 +12.0 81 +15 +15 1018.6 935.6 +20.2
18 20.11 штиль 0 10 км ясно +13.4 +10.8 84 +13 +13 1019.6 936.2
21 20.11 штиль 0 10 км ясно +11.5 +10.3 92 +11 +11 936.0

 

Местоположение метеостанции Gach Saran (Иран): широта 30.43 долгота 50.77 высота над уровнем моря 699 м.

В архиве по умолчанию представлена погода в Gach Saran за последнюю неделю. Архивные данные за месяц целиком и за предыдущие месяцы, начиная с января 2011 года, Вы можете получить, выбрав интересующий диапазон дат из раскрывающегося списка и нажав кнопку "Ввод!".


*Определитесь, кто Вы:
робот инопланетянин человек

Внимание! Время в таблицах - всемирное. Для получения местного времени необходимо прибавить поправку, которая в Gach Saran равна 3.5 ч.

Смотрите также архив погоды в соседних городах и на ближайших метеорологических станциях:

Погода в Yasuj (Иран) (82 км)
Погода в Omidieh (Иран) (112 км)
Погода в Khark (Иран) (137 км)
Погода в Bushehr Airport (Иран) (161 км)
Погода в Bushehr (Иран) (165 км)
Погода в Shiraz (Иран) (197 км)
Погода в Abadeh (Иран) (200 км)
Погода в Shahre-Kord (Иран) (206 км)
Погода в Masjed-Soleyman (Иран) (224 км)
Погода в Fao (Ирак) (224 км)

Пояснения к столбцам:

Ветер - указаны скорость ветра в м/с - средняя за 10 мин, порывы в срок и между сроками (в фигурных скобках) и направление, откуда дует ветер: С - северный, СВ - северо-восточный, В - восточный, ЮВ - юго-восточный, Ю - южный, ЮЗ - юго-западный, З - западный, СЗ - северо-западный.
Видимость - горизонтальная дальность видимости в метрах или километрах. При видимости от 1 до 10 км при отсутствии осадков обычно наблюдается дымка, при ухудшении видимости до 1 км и менее - туман. В сухую погоду видимость может ухудшаться дымом, пылью или мглою.
Явления - указаны атмосферные явления, наблюдавшиеся в срок или в последний час перед сроком; фигурными скобками обозначены явления, наблюдавшиеся между сроками (за 1-3 часа до срока); квадратными скобками обозначены град или гололедные отложения с указанием их диаметра в мм.
Облачность - указаны через наклонную черту общая и нижняя облачность в баллах и высота нижней границы облаков в метрах; квадратными скобками обозначены формы облаков: Ci - перистые, Cs - перисто-слоистые, Cc - перисто-кучевые, Ac - высококучевые, As - высокослоистые, Sc - слоисто-кучевые, Ns - слоисто-дождевые, Cu - кучевые, Cb - кучево-дождевые. Подробнее классификацию облаков см. в Атласе облаков (PDF).
T - Температура воздуха - температура, измеренная на высоте 2 м над землей.
Td - Температура точки росы - температура, при понижении до которой содержащийся в воздухе водяной пар достигнет насыщения.
f - Относительная влажность воздуха - влажноcть воздуха, измеренная на высоте 2 м над землей.
Te - Эффективная температура - температура, которую ощущает одетый по сезону человек в тени. Характеристика душности погоды. При расчете учитывается влияние влажности воздуха и скорости ветра на теплоощущения человека.
Tes - Эффективная температура на солнце - температура, которую ощущает человек, с поправкой на солнечный нагрев. Характеристика знойности погоды. Зависит от высоты солнца над горизонтом, облачности и скорости ветра. Ночью, в пасмурную погоду, а также при ветре 12 м/с и более поправка равна нулю.
P - Атмосферное давление - приведенное к уровню моря атмосферное давление.
Po - Атмосферное давление - измеренное на уровне метеостанции атмосферное давление.
Tmin - Минимальная температура - минимум температуры воздуха на высоте 2 м над землей.
Tmax - Максимальная температура - максимум температуры воздуха на высоте 2 м над землей.
R - Количество осадков - Количество выпавших осадков за период времени, мм. При наведении курсора мыши на число - период времени, за который выпало указанное количество осадков.
R24 - Количество осадков - Количество выпавших осадков за 24 часа, мм.
S - Снежный покров - Высота снежного покрова, см. При наведении курсора мыши на число - состояние снежного покрова и степень покрытия местности в баллах.